Location: Azul
(36.7830°S, 59.8500°W)
Time: 21:02:55
(UTC-03:00)

SRMSAT - Pass Details

Date: 31 October 2021
Orbit: 848 x 865 km, 20.0° (Epoch: 27 November)

Event Time Altitude Azimuth Distance (km) Brightness Sun altitude
Exits shadow 05:08:46 - 323° (NW) 2,660 ? -9.4°
Reaches altitude 10° 05:09:37 10° 330° (NNW) 2,482 ? -9.2°
Maximum altitude 05:12:48 15° 2° (N) 2,157 ? -8.7°
Drops below altitude 10° 05:15:59 10° 35° (NE) 2,477 ? -8.1°
Sets 05:19:43 0° 58° (ENE) 3,409 ? -7.4°
